Powrót do katalogu

FENGYUN 1C DEB

AktywnySSO
NORAD 31774·DEBRIS·🇨🇳 China

Wystrzelony May 10, 1999 z Taiyuan Satellite Launch Center

Loading…

Następne Przeloty (najbliższe 24 godziny)

TLE

Starzejące sięSource: Space-Track

Epoka: Sep 9, 2026, 09:03 UTC

1 31774U 99025CFZ 26252.37710695  .00002475  00000-0  11239-2 0  9998
2 31774  98.7475 299.1779 0059444 151.0685 209.3809 14.21798848668496

Śledź FENGYUN 1C DEB w czasie rzeczywistym z AllMySat

Download on the App Store